| time (UTC) | temp F | wind direction | speed knots | gust knots | rain 1hr in | rain 24hr in | rain mn in | humidity % | barometer mb |
| 20260507020858 | 41 | 247 | 0.0 | 0.0 | 0.00 | 0.00 | 0.00 | 10 | 1010.1 |
| 20260507020358 | 41 | 247 | 0.0 | 0.0 | 0.00 | 0.00 | 0.00 | 10 | 1010.1 |
| 20260507015858 | 41 | 247 | 0.0 | 0.0 | 0.00 | 0.00 | 0.00 | 10 | 1010.1 |
| 20260507015358 | 41 | 247 | 0.0 | 0.0 | 0.00 | 0.00 | 0.00 | 10 | 1010.0 |
| 20260507014858 | 40 | 247 | 0.0 | 0.0 | 0.00 | 0.00 | 0.00 | 10 | 1010.0 |
| 20260507014358 | 40 | 247 | 0.0 | 0.0 | 0.00 | 0.00 | 0.00 | 10 | 1010.0 |
| 20260507013858 | 40 | 270 | 0.0 | 0.0 | 0.00 | 0.00 | 0.00 | 10 | 1010.0 |
| 20260507013359 | 40 | 247 | 0.0 | 0.0 | 0.00 | 0.00 | 0.00 | 10 | 1010.0 |
| 20260507012859 | 40 | 225 | 0.0 | 0.0 | 0.00 | 0.00 | 0.00 | 10 | 1009.9 |
| 20260507012359 | 40 | 225 | 0.0 | 0.0 | 0.00 | 0.00 | 0.00 | 10 | 1010.1 |
| 20260507011858 | 40 | 225 | 0.0 | 0.0 | 0.00 | 0.00 | 0.00 | 10 | 1009.9 |
| 20260507011359 | 40 | 225 | 0.0 | 0.0 | 0.00 | 0.00 | 0.00 | 10 | 1009.8 |
| 20260507010859 | 40 | 247 | 0.0 | 0.0 | 0.00 | 0.00 | 0.00 | 10 | 1009.8 |
| 20260507010359 | 40 | 270 | 0.0 | 0.0 | 0.00 | 0.00 | 0.00 | 10 | 1009.8 |
| 20260507005859 | 40 | 247 | 0.0 | 0.0 | 0.00 | 0.00 | 0.00 | 10 | 1009.9 |
| 20260507005359 | 40 | 247 | 0.0 | 0.0 | 0.00 | 0.00 | 0.00 | 10 | 1010.0 |
| 20260507004859 | 41 | 225 | 0.0 | 0.0 | 0.00 | 0.00 | 0.00 | 10 | 1010.0 |
| 20260507004359 | 41 | 225 | 0.0 | 0.0 | 0.00 | 0.00 | 0.00 | 10 | 1010.0 |
| 20260507003859 | 41 | 247 | 0.0 | 0.0 | 0.00 | 0.00 | 0.00 | 10 | 1009.8 |
| 20260507003359 | 41 | 225 | 0.0 | 0.0 | 0.00 | 0.00 | 0.00 | 10 | 1009.8 |
| 20260507002859 | 41 | 247 | 0.0 | 0.0 | 0.00 | 0.00 | 0.00 | 10 | 1009.9 |
| 20260507002359 | 41 | 247 | 0.0 | 0.0 | 0.00 | 0.00 | 0.00 | 10 | 1010.0 |
| 20260507001859 | 41 | 225 | 0.0 | 0.0 | 0.00 | 0.00 | 0.00 | 10 | 1010.0 |
| 20260507001359 | 41 | 247 | 0.0 | 0.0 | 0.00 | 0.00 | 0.00 | 10 | 1009.9 |
| 20260507000859 | 41 | 247 | 0.0 | 0.0 | 0.00 | 0.00 | 0.00 | 10 | 1009.9 |
| 20260507000359 | 41 | 247 | 0.0 | 0.0 | 0.00 | 0.00 | 0.00 | 10 | 1010.0 |
| 20260506235859 | 41 | 247 | 0.0 | 0.0 | 0.00 | 0.00 | 0.00 | 10 | 1010.0 |
| 20260506235359 | 41 | 247 | 0.0 | 0.0 | 0.00 | 0.00 | 0.00 | 10 | 1010.0 |
| 20260506234859 | 41 | 270 | 0.0 | 0.0 | 0.00 | 0.00 | 0.00 | 10 | 1010.0 |
| 20260506234359 | 41 | 247 | 0.0 | 0.0 | 0.00 | 0.00 | 0.00 | 10 | 1010.0 |
| 20260506233859 | 41 | 247 | 0.0 | 0.0 | 0.00 | 0.00 | 0.00 | 10 | 1010.0 |
| 20260506233359 | 41 | 247 | 0.0 | 0.0 | 0.00 | 0.00 | 0.00 | 10 | 1010.1 |
| 20260506232859 | 41 | 247 | 0.0 | 0.0 | 0.00 | 0.00 | 0.00 | 10 | 1009.9 |
| 20260506232359 | 41 | 247 | 0.0 | 0.0 | 0.00 | 0.00 | 0.00 | 10 | 1009.8 |
| 20260506231859 | 41 | 270 | 0.0 | 0.0 | 0.00 | 0.00 | 0.00 | 10 | 1009.9 |
| 20260506231359 | 41 | 247 | 0.0 | 0.0 | 0.00 | 0.00 | 0.00 | 10 | 1009.9 |
| 20260506230859 | 41 | 247 | 0.0 | 0.0 | 0.00 | 0.00 | 0.00 | 10 | 1009.9 |
| 20260506230359 | 41 | 247 | 0.0 | 0.0 | 0.00 | 0.00 | 0.00 | 10 | 1009.8 |
| 20260506225859 | 41 | 247 | 0.0 | 0.0 | 0.00 | 0.00 | 0.00 | 10 | 1009.8 |
| 20260506225359 | 41 | 247 | 0.0 | 0.0 | 0.00 | 0.00 | 0.00 | 10 | 1009.7 |
| 20260506224859 | 41 | 225 | 0.0 | 0.0 | 0.00 | 0.00 | 0.00 | 10 | 1009.8 |
| 20260506224359 | 41 | 247 | 0.0 | 0.0 | 0.00 | 0.00 | 0.00 | 10 | 1009.7 |
| 20260506223859 | 41 | 270 | 0.0 | 0.0 | 0.00 | 0.00 | 0.00 | 10 | 1009.8 |
| 20260506223359 | 41 | 225 | 0.0 | 0.0 | 0.00 | 0.00 | 0.00 | 10 | 1009.7 |
| 20260506222859 | 41 | 247 | 0.0 | 0.0 | 0.00 | 0.00 | 0.00 | 10 | 1009.6 |
| 20260506222359 | 41 | 247 | 0.0 | 0.0 | 0.00 | 0.00 | 0.00 | 10 | 1009.4 |
| 20260506221859 | 41 | 247 | 0.0 | 0.0 | 0.00 | 0.00 | 0.00 | 10 | 1009.4 |
| 20260506221359 | 41 | 225 | 0.0 | 0.0 | 0.00 | 0.00 | 0.00 | 10 | 1009.6 |
| 20260506220859 | 41 | 247 | 0.0 | 0.0 | 0.00 | 0.00 | 0.00 | 10 | 1009.7 |
| 20260506220359 | 41 | 247 | 0.0 | 0.0 | 0.00 | 0.00 | 0.00 | 10 | 1009.7 |
| 20260506215859 | 41 | 247 | 0.0 | 0.0 | 0.00 | 0.00 | 0.00 | 10 | 1009.5 |
| 20260506215359 | 41 | 247 | 0.0 | 0.0 | 0.00 | 0.00 | 0.00 | 10 | 1009.4 |
| 20260506214859 | 41 | 270 | 0.0 | 0.0 | 0.00 | 0.00 | 0.00 | 10 | 1009.4 |
| 20260506214359 | 41 | 247 | 0.0 | 0.0 | 0.00 | 0.00 | 0.00 | 10 | 1009.5 |
| 20260506213859 | 41 | 225 | 0.0 | 0.0 | 0.00 | 0.00 | 0.00 | 10 | 1009.4 |
| 20260506213359 | 41 | 247 | 0.0 | 0.0 | 0.00 | 0.00 | 0.00 | 10 | 1009.5 |
| 20260506212859 | 41 | 247 | 0.0 | 0.0 | 0.00 | 0.00 | 0.00 | 10 | 1009.5 |
| 20260506212359 | 41 | 247 | 0.0 | 0.0 | 0.00 | 0.00 | 0.00 | 10 | 1009.4 |
| 20260506211859 | 41 | 247 | 0.0 | 0.0 | 0.00 | 0.00 | 0.00 | 10 | 1009.5 |
| 20260506211359 | 41 | 247 | 0.0 | 0.0 | 0.00 | 0.00 | 0.00 | 10 | 1009.5 |
| 20260506210859 | 41 | 247 | 0.0 | 0.0 | 0.00 | 0.00 | 0.00 | 10 | 1009.5 |
| 20260506205859 | 41 | 292 | 0.0 | 0.0 | 0.00 | 0.00 | 0.00 | 10 | 1009.7 |
| 20260506205359 | 41 | 247 | 0.0 | 0.0 | 0.00 | 0.00 | 0.00 | 10 | 1009.6 |
| 20260506204359 | 41 | 225 | 0.0 | 0.0 | 0.00 | 0.00 | 0.00 | 10 | 1009.6 |
| 20260506203859 | 41 | 247 | 0.0 | 0.0 | 0.00 | 0.00 | 0.00 | 10 | 1009.4 |
| 20260506203400 | 41 | 225 | 0.0 | 0.0 | 0.00 | 0.00 | 0.00 | 10 | 1009.4 |
| 20260506202859 | 41 | 247 | 0.0 | 0.0 | 0.00 | 0.00 | 0.00 | 10 | 1009.2 |
| 20260506202359 | 41 | 247 | 0.0 | 0.0 | 0.00 | 0.00 | 0.00 | 10 | 1009.3 |
| 20260506201859 | 41 | 247 | 0.0 | 0.0 | 0.00 | 0.00 | 0.00 | 10 | 1009.1 |
| 20260506201359 | 41 | 225 | 0.0 | 0.0 | 0.00 | 0.00 | 0.00 | 10 | 1009.0 |
| 20260506200359 | 41 | 247 | 0.0 | 0.0 | 0.00 | 0.00 | 0.00 | 10 | 1009.1 |
| 20260506195859 | 41 | 225 | 0.0 | 0.0 | 0.00 | 0.00 | 0.00 | 10 | 1008.9 |
| 20260506195359 | 41 | 247 | 0.0 | 0.0 | 0.00 | 0.00 | 0.00 | 10 | 1008.8 |
| 20260506194859 | 41 | 247 | 0.0 | 0.0 | 0.00 | 0.00 | 0.00 | 10 | 1009.0 |
| 20260506194359 | 41 | 247 | 0.0 | 0.0 | 0.00 | 0.00 | 0.00 | 10 | 1008.9 |
| 20260506193859 | 41 | 247 | 0.0 | 0.0 | 0.00 | 0.00 | 0.00 | 10 | 1008.9 |
| 20260506193400 | 41 | 247 | 0.0 | 0.0 | 0.00 | 0.00 | 0.00 | 10 | 1008.8 |
| 20260506192859 | 41 | 247 | 0.0 | 0.0 | 0.00 | 0.00 | 0.00 | 10 | 1009.0 |
| 20260506192359 | 41 | 202 | 0.0 | 0.0 | 0.00 | 0.00 | 0.00 | 10 | 1009.0 |
| 20260506191859 | 41 | 247 | 0.0 | 0.0 | 0.00 | 0.00 | 0.00 | 10 | 1009.0 |
| 20260506191359 | 41 | 247 | 0.0 | 0.0 | 0.00 | 0.00 | 0.00 | 10 | 1008.9 |
| 20260506190859 | 41 | 247 | 0.0 | 0.0 | 0.00 | 0.00 | 0.00 | 10 | 1008.7 |
| 20260506190359 | 41 | 247 | 0.0 | 0.0 | 0.00 | 0.00 | 0.00 | 10 | 1008.8 |
| 20260506185859 | 41 | 180 | 0.0 | 0.0 | 0.00 | 0.00 | 0.00 | 10 | 1008.8 |
| 20260506185359 | 41 | 225 | 0.0 | 0.0 | 0.00 | 0.00 | 0.00 | 10 | 1008.8 |
| 20260506184859 | 42 | 247 | 0.0 | 0.0 | 0.00 | 0.00 | 0.00 | 10 | 1008.5 |
| 20260506184359 | 42 | 247 | 0.0 | 0.0 | 0.00 | 0.00 | 0.00 | 10 | 1008.5 |
| 20260506183859 | 42 | 247 | 0.0 | 0.0 | 0.00 | 0.00 | 0.00 | 10 | 1008.5 |
| 20260506183359 | 42 | 247 | 0.0 | 0.0 | 0.00 | 0.00 | 0.00 | 10 | 1008.3 |
| 20260506182859 | 42 | 270 | 0.0 | 0.0 | 0.00 | 0.00 | 0.00 | 10 | 1008.3 |
| 20260506182359 | 42 | 292 | 0.0 | 0.0 | 0.00 | 0.00 | 0.00 | 10 | 1008.4 |
| 20260506181859 | 43 | 270 | 0.0 | 0.0 | 0.00 | 0.00 | 0.00 | 10 | 1008.3 |
| 20260506181359 | 43 | 225 | 0.0 | 0.0 | 0.00 | 0.00 | 0.00 | 10 | 1008.3 |
| 20260506180859 | 43 | 247 | 0.0 | 0.0 | 0.00 | 0.00 | 0.00 | 10 | 1008.4 |
| 20260506180400 | 43 | 247 | 0.0 | 0.0 | 0.00 | 0.00 | 0.00 | 10 | 1008.5 |
| 20260506175900 | 43 | 247 | 0.0 | 0.0 | 0.00 | 0.00 | 0.00 | 10 | 1008.5 |
| 20260506175400 | 42 | 225 | 0.0 | 0.0 | 0.00 | 0.00 | 0.00 | 10 | 1008.3 |
| 20260506174900 | 42 | 247 | 0.0 | 0.0 | 0.00 | 0.00 | 0.00 | 10 | 1008.3 |
| 20260506174400 | 42 | 247 | 0.0 | 0.0 | 0.00 | 0.00 | 0.00 | 10 | 1008.0 |
| 20260506173900 | 42 | 225 | 0.0 | 0.0 | 0.00 | 0.00 | 0.00 | 10 | 1007.9 |
| 20260506173400 | 43 | 247 | 0.0 | 0.0 | 0.00 | 0.00 | 0.00 | 10 | 1008.0 |
| 20260506172900 | 43 | 247 | 0.0 | 0.0 | 0.00 | 0.00 | 0.00 | 10 | 1007.7 |
| 20260506172400 | 43 | 270 | 0.0 | 0.0 | 0.00 | 0.00 | 0.00 | 10 | 1007.7 |
| 20260506171900 | 43 | 247 | 0.0 | 0.0 | 0.00 | 0.00 | 0.00 | 10 | 1007.7 |
| 20260506171400 | 43 | 225 | 0.0 | 0.0 | 0.00 | 0.00 | 0.00 | 10 | 1007.6 |
| 20260506170900 | 44 | 225 | 0.0 | 0.0 | 0.00 | 0.00 | 0.00 | 10 | 1007.4 |
| 20260506165900 | 45 | 247 | 0.0 | 0.0 | 0.00 | 0.00 | 0.00 | 10 | 1007.2 |
| 20260506165400 | 46 | 270 | 0.0 | 0.0 | 0.00 | 0.00 | 0.00 | 10 | 1007.1 |
| 20260506164900 | 46 | 225 | 0.0 | 0.0 | 0.00 | 0.00 | 0.00 | 10 | 1006.9 |
| 20260506164400 | 46 | 247 | 0.0 | 0.0 | 0.00 | 0.00 | 0.00 | 10 | 1007.2 |
| 20260506163900 | 45 | 270 | 0.0 | 0.0 | 0.00 | 0.00 | 0.00 | 10 | 1007.0 |
| 20260506163400 | 45 | 247 | 0.0 | 0.0 | 0.00 | 0.00 | 0.00 | 10 | 1007.1 |
| 20260506162900 | 45 | 247 | 0.0 | 0.0 | 0.00 | 0.00 | 0.00 | 10 | 1007.1 |
| 20260506162529 | 46 | 180 | 0.0 | 0.0 | 0.00 | 0.00 | 0.00 | 10 | 1006.9 |
| 20260506162400 | 45 | 247 | 0.0 | 0.0 | 0.00 | 0.00 | 0.00 | 10 | 1006.9 |
| 20260506161900 | 46 | 180 | 0.0 | 0.0 | 0.00 | 0.00 | 0.00 | 10 | 1006.9 |
| 20260506161400 | 46 | 247 | 0.0 | 0.0 | 0.00 | 0.00 | 0.00 | 10 | 1006.9 |
| 20260506160900 | 47 | 247 | 0.0 | 0.0 | 0.00 | 0.00 | 0.00 | 10 | 1006.9 |
| 20260506160400 | 47 | 247 | 0.0 | 0.0 | 0.00 | 0.00 | 0.00 | 10 | 1006.8 |
| 20260506155900 | 47 | 225 | 0.0 | 0.0 | 0.00 | 0.00 | 0.00 | 10 | 1006.8 |
| 20260506155400 | 47 | 247 | 0.0 | 0.0 | 0.00 | 0.00 | 0.00 | 10 | 1006.8 |
| 20260506154900 | 46 | 247 | 0.0 | 0.0 | 0.00 | 0.00 | 0.00 | 10 | 1006.9 |
| 20260506154400 | 46 | 247 | 0.0 | 0.0 | 0.00 | 0.00 | 0.00 | 10 | 1007.0 |
| 20260506153900 | 46 | 225 | 0.0 | 0.0 | 0.00 | 0.00 | 0.00 | 10 | 1006.9 |
| 20260506153400 | 48 | 247 | 0.0 | 0.0 | 0.00 | 0.00 | 0.00 | 10 | 1006.8 |
| 20260506152900 | 49 | 247 | 0.0 | 0.0 | 0.00 | 0.00 | 0.00 | 10 | 1006.8 |
| 20260506152400 | 53 | 247 | 0.0 | 0.0 | 0.00 | 0.00 | 0.00 | 11 | 1006.7 |
| 20260506151900 | 57 | 247 | 0.0 | 0.0 | 0.00 | 0.00 | 0.00 | 13 | 1006.6 |
| 20260506151400 | 60 | 247 | 0.0 | 0.0 | 0.00 | 0.00 | 0.00 | 10 | 1006.4 |
| 20260506150900 | 60 | 225 | 0.0 | 0.0 | 0.00 | 0.00 | 0.00 | 10 | 1006.2 |
| 20260506145900 | 58 | 157 | 0.0 | 0.0 | 0.00 | 0.00 | 0.00 | 10 | 1006.2 |
| 20260506145400 | 58 | 157 | 0.0 | 0.0 | 0.00 | 0.00 | 0.00 | 10 | 1005.9 |
| 20260506144900 | 58 | 157 | 0.0 | 0.0 | 0.00 | 0.00 | 0.00 | 10 | 1005.9 |
| 20260506144400 | 57 | 157 | 0.0 | 0.0 | 0.00 | 0.00 | 0.00 | 10 | 1005.9 |
| 20260506143900 | 57 | 157 | 0.0 | 0.0 | 0.00 | 0.00 | 0.00 | 10 | 1005.9 |
| 20260506143400 | 57 | 157 | 0.0 | 0.0 | 0.00 | 0.00 | 0.00 | 10 | 1006.1 |
| 20260506142900 | 57 | 157 | 0.0 | 0.0 | 0.00 | 0.00 | 0.00 | 10 | 1005.9 |
| 20260506142400 | 56 | 157 | 0.0 | 0.0 | 0.00 | 0.00 | 0.00 | 10 | 1005.8 |
| 20260506141900 | 55 | 225 | 0.0 | 0.0 | 0.00 | 0.00 | 0.00 | 10 | 1005.9 |
| 20260506141400 | 55 | 225 | 0.0 | 0.0 | 0.00 | 0.00 | 0.00 | 10 | 1005.8 |
| 20260506140900 | 54 | 157 | 0.0 | 0.0 | 0.00 | 0.00 | 0.00 | 10 | 1006.0 |
| 20260506135900 | 52 | 225 | 0.0 | 0.0 | 0.00 | 0.00 | 0.00 | 10 | 1006.0 |
| 20260506134900 | 51 | 247 | 0.0 | 0.0 | 0.00 | 0.00 | 0.00 | 10 | 1006.1 |
| 20260506134400 | 51 | 247 | 0.0 | 0.0 | 0.00 | 0.00 | 0.00 | 10 | 1006.0 |
| 20260506133900 | 51 | 0 | 0.0 | 0.0 | 0.00 | 0.00 | 0.00 | 10 | 1006.0 |
| 20260506133400 | 50 | 180 | 0.0 | 0.0 | 0.00 | 0.00 | 0.00 | 10 | 1006.1 |
| 20260506132900 | 49 | 180 | 0.0 | 0.0 | 0.00 | 0.00 | 0.00 | 10 | 1006.3 |
| 20260506132400 | 48 | 180 | 0.0 | 0.0 | 0.00 | 0.00 | 0.00 | 10 | 1006.5 |
| 20260506131900 | 48 | 180 | 0.0 | 0.0 | 0.00 | 0.00 | 0.00 | 10 | 1006.7 |
| 20260506131400 | 48 | 180 | 0.0 | 0.0 | 0.00 | 0.00 | 0.00 | 10 | 1006.7 |
| 20260506130900 | 48 | 180 | 0.0 | 0.0 | 0.00 | 0.00 | 0.00 | 10 | 1007.1 |
| 20260506130400 | 50 | 292 | 0.0 | 0.0 | 0.00 | 0.00 | 0.00 | 10 | 1007.1 |
| 20260506125900 | 51 | 270 | 0.0 | 0.0 | 0.00 | 0.00 | 0.00 | 10 | 1007.1 |
| 20260506124900 | 55 | 315 | 0.0 | 0.0 | 0.00 | 0.00 | 0.00 | 10 | 1006.7 |
| 20260506124400 | 56 | 337 | 0.0 | 0.0 | 0.00 | 0.00 | 0.00 | 15 | 1006.4 |
| 20260506123900 | 57 | 0 | 0.0 | 0.0 | 0.00 | 0.00 | 0.00 | 20 | 1006.3 |
| 20260506123400 | 58 | 22 | 0.0 | 0.0 | 0.00 | 0.00 | 0.00 | 24 | 1006.0 |
| 20260506122900 | 59 | 22 | 0.0 | 0.0 | 0.00 | 0.00 | 0.00 | 28 | 1005.8 |
| 20260506122400 | 60 | 22 | 0.0 | 0.0 | 0.00 | 0.00 | 0.00 | 32 | 1006.0 |
| 20260506121900 | 61 | 22 | 0.0 | 0.0 | 0.00 | 0.00 | 0.00 | 33 | 1006.2 |
| 20260506121400 | 62 | 22 | 0.0 | 0.0 | 0.00 | 0.00 | 0.00 | 36 | 1006.2 |
| 20260506120900 | 62 | 22 | 0.0 | 0.0 | 0.00 | 0.00 | 0.00 | 38 | 1006.3 |
| 20260506120400 | 63 | 67 | 0.0 | 0.0 | 0.00 | 0.00 | 0.00 | 40 | 1006.3 |
| 20260506115900 | 64 | 337 | 0.0 | 0.0 | 0.00 | 0.00 | 0.00 | 39 | 1006.4 |
| 20260506115400 | 64 | 45 | 0.0 | 0.0 | 0.00 | 0.00 | 0.00 | 38 | 1006.3 |
| 20260506114900 | 65 | 45 | 0.0 | 0.0 | 0.00 | 0.00 | 0.00 | 37 | 1006.2 |
| 20260506114400 | 64 | 112 | 0.0 | 0.0 | 0.00 | 0.00 | 0.00 | 37 | 1006.4 |
| 20260506113900 | 64 | 22 | 0.0 | 0.0 | 0.00 | 0.00 | 0.00 | 37 | 1006.2 |
| 20260506113401 | 63 | 22 | 0.0 | 0.0 | 0.00 | 0.00 | 0.00 | 38 | 1006.3 |
| 20260506112400 | 63 | 22 | 0.0 | 0.0 | 0.00 | 0.00 | 0.00 | 42 | 1006.5 |
| 20260506111900 | 64 | 67 | 0.0 | 0.0 | 0.00 | 0.00 | 0.00 | 42 | 1006.6 |
| 20260506111400 | 64 | 67 | 0.0 | 0.0 | 0.00 | 0.00 | 0.00 | 44 | 1006.6 |
| 20260506110900 | 65 | 90 | 0.0 | 0.0 | 0.00 | 0.00 | 0.00 | 44 | 1006.6 |
| 20260506110400 | 66 | 90 | 0.0 | 0.0 | 0.00 | 0.00 | 0.00 | 45 | 1006.7 |
| 20260506105400 | 67 | 45 | 0.0 | 0.0 | 0.00 | 0.00 | 0.00 | 45 | 1006.7 |
| 20260506104900 | 68 | 67 | 0.0 | 0.0 | 0.00 | 0.00 | 0.00 | 45 | 1006.5 |
| 20260506104400 | 68 | 45 | 0.0 | 0.0 | 0.00 | 0.00 | 0.00 | 45 | 1006.6 |
| 20260506103900 | 69 | 45 | 0.0 | 0.0 | 0.00 | 0.00 | 0.00 | 45 | 1006.5 |
| 20260506103401 | 69 | 45 | 0.0 | 0.0 | 0.00 | 0.00 | 0.00 | 45 | 1006.4 |
| 20260506102901 | 69 | 112 | 0.0 | 0.0 | 0.00 | 0.00 | 0.00 | 45 | 1006.3 |
| 20260506102401 | 70 | 315 | 0.0 | 0.0 | 0.00 | 0.00 | 0.00 | 45 | 1006.5 |
| 20260506101901 | 71 | 135 | 0.0 | 0.0 | 0.00 | 0.00 | 0.00 | 44 | 1006.6 |
| 20260506101401 | 71 | 67 | 0.0 | 0.0 | 0.00 | 0.00 | 0.00 | 44 | 1006.5 |
| 20260506100901 | 71 | 67 | 0.0 | 0.0 | 0.00 | 0.00 | 0.00 | 44 | 1006.4 |
| 20260506095901 | 69 | 90 | 0.0 | 0.0 | 0.00 | 0.00 | 0.00 | 38 | 1006.3 |
| 20260506095401 | 67 | 22 | 0.0 | 0.0 | 0.00 | 0.00 | 0.00 | 38 | 1006.3 |
| 20260506094901 | 66 | 22 | 0.0 | 0.0 | 0.00 | 0.00 | 0.00 | 35 | 1006.4 |
| 20260506094401 | 65 | 45 | 0.0 | 0.0 | 0.00 | 0.00 | 0.00 | 34 | 1006.4 |
| 20260506093901 | 65 | 67 | 0.0 | 0.0 | 0.00 | 0.00 | 0.00 | 32 | 1006.5 |
| 20260506092901 | 65 | 45 | 0.0 | 0.0 | 0.00 | 0.00 | 0.00 | 27 | 1006.5 |
| 20260506092401 | 64 | 67 | 0.0 | 0.0 | 0.00 | 0.00 | 0.00 | 18 | 1006.4 |
| 20260506091901 | 63 | 45 | 0.0 | 0.0 | 0.00 | 0.00 | 0.00 | 10 | 1006.3 |
| 20260506091401 | 62 | 67 | 0.0 | 0.0 | 0.00 | 0.00 | 0.00 | 14 | 1006.4 |
| 20260506090901 | 61 | 67 | 0.0 | 0.0 | 0.00 | 0.00 | 0.00 | 11 | 1006.3 |
| 20260506090401 | 60 | 67 | 0.0 | 0.0 | 0.00 | 0.00 | 0.00 | 10 | 1006.5 |
| 20260506085901 | 59 | 22 | 0.0 | 0.0 | 0.00 | 0.00 | 0.00 | 10 | 1006.4 |
| 20260506085401 | 58 | 22 | 0.0 | 0.0 | 0.00 | 0.00 | 0.00 | 10 | 1006.3 |
| 20260506084901 | 57 | 22 | 0.0 | 0.0 | 0.00 | 0.00 | 0.00 | 10 | 1006.7 |
| 20260506084401 | 57 | 22 | 0.0 | 0.0 | 0.00 | 0.00 | 0.00 | 10 | 1006.5 |
| 20260506083901 | 57 | 22 | 0.0 | 0.0 | 0.00 | 0.00 | 0.00 | 10 | 1006.6 |
| 20260506083401 | 57 | 45 | 0.0 | 0.0 | 0.00 | 0.00 | 0.00 | 10 | 1006.3 |
| 20260506082901 | 57 | 45 | 0.0 | 0.0 | 0.00 | 0.00 | 0.00 | 10 | 1006.3 |
| 20260506082401 | 56 | 112 | 0.0 | 0.0 | 0.00 | 0.00 | 0.00 | 10 | 1006.4 |
| 20260506081401 | 55 | 112 | 0.0 | 0.0 | 0.00 | 0.00 | 0.00 | 10 | 1006.6 |
| 20260506080901 | 55 | 112 | 0.0 | 0.0 | 0.00 | 0.00 | 0.00 | 10 | 1006.7 |
| 20260506080402 | 54 | 112 | 0.0 | 0.0 | 0.00 | 0.00 | 0.00 | 10 | 1006.4 |
| 20260506073401 | 51 | 157 | 0.0 | 0.0 | 0.00 | 0.00 | 0.00 | 10 | 1006.3 |
| 20260506072901 | 51 | 157 | 0.0 | 0.0 | 0.00 | 0.00 | 0.00 | 10 | 1006.4 |
| 20260506072401 | 50 | 157 | 0.0 | 0.0 | 0.00 | 0.00 | 0.00 | 10 | 1006.5 |
| 20260506071901 | 50 | 157 | 0.0 | 0.0 | 0.00 | 0.00 | 0.00 | 10 | 1006.6 |
| 20260506071401 | 50 | 157 | 0.0 | 0.0 | 0.00 | 0.00 | 0.00 | 10 | 1006.5 |
| 20260506070901 | 50 | 157 | 0.0 | 0.0 | 0.00 | 0.00 | 0.00 | 10 | 1006.6 |
| 20260506062401 | 47 | 157 | 0.0 | 0.0 | 0.00 | 0.00 | 0.00 | 10 | 1007.0 |
| 20260506061901 | 47 | 157 | 0.0 | 0.0 | 0.00 | 0.00 | 0.00 | 10 | 1006.8 |
| 20260506061402 | 46 | 157 | 0.0 | 0.0 | 0.00 | 0.00 | 0.00 | 10 | 1006.7 |
| 20260506060901 | 46 | 157 | 0.0 | 0.0 | 0.00 | 0.00 | 0.00 | 10 | 1006.6 |
| 20260506060401 | 46 | 157 | 0.0 | 0.0 | 0.00 | 0.00 | 0.00 | 10 | 1006.8 |
| 20260506051401 | 45 | 157 | 0.0 | 0.0 | 0.00 | 0.00 | 0.00 | 10 | 1006.7 |
| 20260506050901 | 45 | 157 | 0.0 | 0.0 | 0.00 | 0.00 | 0.00 | 10 | 1006.8 |
| 20260506044901 | 45 | 225 | 0.0 | 0.0 | 0.00 | 0.00 | 0.00 | 10 | 1007.0 |
| 20260506044401 | 44 | 225 | 0.0 | 0.0 | 0.00 | 0.00 | 0.00 | 10 | 1007.1 |
| 20260506043901 | 44 | 247 | 0.0 | 0.0 | 0.00 | 0.00 | 0.00 | 10 | 1007.1 |
| 20260506043401 | 44 | 247 | 0.0 | 0.0 | 0.00 | 0.00 | 0.00 | 10 | 1006.9 |
| 20260506042901 | 44 | 225 | 0.0 | 0.0 | 0.00 | 0.00 | 0.00 | 10 | 1006.9 |
| 20260506042401 | 44 | 225 | 0.0 | 0.0 | 0.00 | 0.00 | 0.00 | 10 | 1006.9 |
| 20260506041901 | 44 | 225 | 0.0 | 0.0 | 0.00 | 0.00 | 0.00 | 10 | 1007.0 |
| 20260506041401 | 44 | 225 | 0.0 | 0.0 | 0.00 | 0.00 | 0.00 | 10 | 1007.1 |
| 20260506040901 | 43 | 247 | 0.0 | 0.0 | 0.00 | 0.00 | 0.00 | 10 | 1007.1 |
| 20260506040401 | 43 | 247 | 0.0 | 0.0 | 0.00 | 0.00 | 0.00 | 10 | 1007.3 |
| 20260506035901 | 43 | 247 | 0.0 | 0.0 | 0.00 | 0.00 | 0.00 | 10 | 1007.2 |
| 20260506035401 | 43 | 247 | 0.0 | 0.0 | 0.00 | 0.00 | 0.00 | 10 | 1007.2 |
| 20260506034901 | 43 | 247 | 0.0 | 0.0 | 0.00 | 0.00 | 0.00 | 10 | 1007.2 |
| 20260506034401 | 43 | 270 | 0.0 | 0.0 | 0.00 | 0.00 | 0.00 | 10 | 1007.2 |
| 20260506033401 | 42 | 247 | 0.0 | 0.0 | 0.00 | 0.00 | 0.00 | 10 | 1007.2 |
| 20260506032901 | 42 | 247 | 0.0 | 0.0 | 0.00 | 0.00 | 0.00 | 10 | 1007.2 |
| 20260506032401 | 41 | 247 | 0.0 | 0.0 | 0.00 | 0.00 | 0.00 | 10 | 1007.5 |
| 20260506031902 | 41 | 247 | 0.0 | 0.0 | 0.00 | 0.00 | 0.00 | 10 | 1007.6 |
| 20260506031402 | 42 | 247 | 0.0 | 0.0 | 0.00 | 0.00 | 0.00 | 10 | 1007.7 |
| 20260506030901 | 42 | 247 | 0.0 | 0.0 | 0.00 | 0.00 | 0.00 | 10 | 1007.7 |
| 20260506030402 | 42 | 247 | 0.0 | 0.0 | 0.00 | 0.00 | 0.00 | 10 | 1007.8 |
| 20260506025902 | 42 | 247 | 0.0 | 0.0 | 0.00 | 0.00 | 0.00 | 10 | 1007.7 |
| 20260506025402 | 42 | 225 | 0.0 | 0.0 | 0.00 | 0.00 | 0.00 | 10 | 1007.6 |
| 20260506024902 | 42 | 225 | 0.0 | 0.0 | 0.00 | 0.00 | 0.00 | 10 | 1007.8 |
| 20260506024402 | 42 | 225 | 0.0 | 0.0 | 0.00 | 0.00 | 0.00 | 10 | 1008.1 |
| 20260506023902 | 42 | 225 | 0.0 | 0.0 | 0.00 | 0.00 | 0.00 | 10 | 1008.0 |
| 20260506023402 | 42 | 225 | 0.0 | 0.0 | 0.00 | 0.00 | 0.00 | 10 | 1008.1 |
| 20260506022902 | 42 | 225 | 0.0 | 0.0 | 0.00 | 0.00 | 0.00 | 10 | 1008.1 |
| 20260506022402 | 42 | 225 | 0.0 | 0.0 | 0.00 | 0.00 | 0.00 | 10 | 1008.2 |
| 20260506021902 | 42 | 225 | 0.0 | 0.0 | 0.00 | 0.00 | 0.00 | 10 | 1008.2 |
| 20260506021402 | 42 | 225 | 0.0 | 0.0 | 0.00 | 0.00 | 0.00 | 10 | 1008.2 |